FW1194 Weather Reports


time (UTC)temp
F
wind
direction
speed
knots
gust
knots
rain 1hr
in
rain 24hr
in
rain mn
in
humidity
%
barometer
mb
20260509060216 54 225 4.3 6.1 0.00 0.00 0.00 82 1004.3
20260509055236 54 225 6.1 7.8 0.00 0.00 0.00 82 1004.4
20260509054216 55 203 3.5 6.1 0.00 0.00 0.00 81 1004.5
20260509053216 55 203 3.5 5.2 0.00 0.00 0.00 80 1004.5
20260509052216 55 225 2.6 4.3 0.00 0.00 0.00 79 1004.6
20260509051216 55 203 3.5 5.2 0.00 0.00 0.00 78 1004.5
20260509050216 56 203 3.5 4.3 0.00 0.00 0.00 77 1004.5
20260509045216 56 203 3.5 5.2 0.00 0.00 0.00 75 1004.5
20260509044216 56 203 5.2 6.1 0.00 0.00 0.00 73 1004.5
20260509043216 56 203 3.5 5.2 0.00 0.00 0.00 72 1004.4
20260509042217 57 203 4.3 8.7 0.00 0.00 0.00 72 1004.4
20260509041216 57 203 4.3 6.1 0.00 0.00 0.00 71 1004.6
20260509040216 57 203 6.1 9.6 0.00 0.00 0.00 70 1004.6
20260509035217 57 203 4.3 7.0 0.00 0.00 0.00 69 1004.6
20260509034216 57 203 3.5 6.1 0.00 0.00 0.00 68 1004.7
20260509033216 57 203 4.3 6.1 0.00 0.00 0.00 67 1004.7
20260509032217 58 203 2.6 4.3 0.00 0.00 0.00 65 1004.5
20260509031216 58 203 2.6 3.5 0.00 0.00 0.00 62 1004.6
20260509030242 58 180 2.6 4.3 0.00 0.00 0.00 61 1004.5
20260509025216 58 180 4.3 7.0 0.00 0.00 0.00 60 1004.5
20260509024216 59 180 3.5 5.2 0.00 0.00 0.00 59 1004.5
20260509023216 59 180 0.9 2.6 0.00 0.00 0.00 58 1004.6
20260509022237 59 180 1.7 3.5 0.00 0.00 0.00 58 1004.6
20260509021216 60 203 1.7 2.6 0.00 0.00 0.00 57 1004.5
20260509020216 60 180 0.9 1.7 0.00 0.00 0.00 56 1004.5
20260509015216 61 180 1.7 3.5 0.00 0.00 0.00 55 1004.5
20260509014216 61 180 0.9 2.6 0.00 0.00 0.00 54 1004.4
20260509013216 62 203 1.7 3.5 0.00 0.00 0.00 54 1004.3
20260509012216 62 203 2.6 3.5 0.00 0.00 0.00 52 1004.3
20260509011216 63 180 2.6 2.6 0.00 0.00 0.00 51 1004.3
20260509010216 63 203 2.6 3.5 0.00 0.00 0.00 50 1004.2
20260509005216 64 180 4.3 7.0 0.00 0.00 0.00 49 1004.1
20260509004216 64 203 4.3 6.1 0.00 0.00 0.00 48 1004.2
20260509003237 65 225 1.7 2.6 0.00 0.00 0.00 47 1004.2
20260509002216 65 180 2.6 4.3 0.00 0.00 0.00 47 1004.2
20260509001216 66 203 4.3 6.1 0.00 0.00 0.00 46 1004.4
20260509000219 66 203 2.6 4.3 0.00 0.00 0.00 46 1004.4
20260508235216 66 203 3.5 4.3 0.00 0.00 0.00 46 1004.4
20260508234216 66 180 3.5 6.1 0.00 0.00 0.00 45 1004.5
20260508233216 66 225 2.6 3.5 0.00 0.00 0.00 43 1004.5
20260508232216 67 225 4.3 5.2 0.00 0.00 0.00 42 1004.5
20260508231216 68 203 1.7 3.5 0.00 0.00 0.00 41 1004.5
20260508230216 67 203 6.1 8.7 0.00 0.00 0.00 42 1004.7
20260508225216 68 203 4.3 6.1 0.00 0.00 0.00 41 1004.6
20260508224236 68 225 3.5 4.3 0.00 0.00 0.00 42 1004.6
20260508223216 68 113 2.6 5.2 0.00 0.00 0.00 43 1004.6
20260508222216 67 158 1.7 2.6 0.00 0.00 0.00 44 1004.7
20260508221216 68 180 3.5 4.3 0.00 0.00 0.00 44 1004.9
20260508220236 68 225 4.3 7.0 0.00 0.00 0.00 43 1005.0
20260508215216 68 248 4.3 6.1 0.00 0.04 0.00 41 1005.0
20260508214216 68 180 3.5 5.2 0.00 0.04 0.00 41 1005.0
20260508213216 66 225 4.3 6.1 0.00 0.04 0.00 44 1005.1
20260508212216 66 203 4.3 4.3 0.00 0.04 0.00 43 1005.1
20260508211216 67 248 3.5 6.1 0.00 0.04 0.00 42 1005.3
20260508210216 67 270 2.6 3.5 0.00 0.04 0.00 40 1005.2
20260508205216 68 293 0.9 1.7 0.00 0.05 0.00 40 1005.3
20260508204216 68 248 1.7 3.5 0.00 0.05 0.00 41 1005.5
20260508203216 69 180 5.2 8.7 0.00 0.05 0.00 40 1005.7
20260508202215 69 135 4.3 6.1 0.00 0.05 0.00 42 1005.9
20260508201218 68 158 5.2 7.0 0.00 0.05 0.00 42 1005.9
20260508200218 67 225 5.2 7.8 0.00 0.05 0.00 42 1006.2
20260508195218 69 203 4.3 6.1 0.00 0.05 0.00 40 1006.3
20260508194217 69 270 0.9 1.7 0.00 0.05 0.00 36 1006.4
20260508193238 68 225 2.6 3.5 0.00 0.05 0.00 40 1006.5
20260508192218 68 203 6.1 7.0 0.00 0.05 0.00 40 1006.7
20260508191217 68 225 1.7 3.5 0.00 0.05 0.00 39 1006.7
20260508190238 68 248 0.9 1.7 0.00 0.05 0.00 37 1006.9
20260508185238 67 248 0.9 3.5 0.00 0.05 0.00 41 1006.9
20260508184216 67 113 1.7 3.5 0.00 0.05 0.00 39 1007.1
20260508183218 67 203 1.7 3.5 0.00 0.05 0.00 41 1007.4
20260508182217 66 203 5.2 7.8 0.00 0.05 0.00 44 1007.4
20260508181218 66 90 5.2 7.8 0.00 0.05 0.00 45 1007.5
20260508180217 66 90 3.5 7.0 0.00 0.05 0.00 45 1007.6
20260508175238 67 113 2.6 5.2 0.00 0.05 0.00 43 1007.7
20260508174218 67 90 2.6 5.2 0.00 0.05 0.00 44 1008.0
20260508173238 66 180 4.3 5.2 0.00 0.05 0.00 44 1008.1
20260508172217 66 68 1.7 4.3 0.00 0.05 0.00 41 1008.3
20260508171217 66 135 0.9 1.7 0.00 0.05 0.00 37 1008.5
20260508170217 66 180 4.3 7.0 0.00 0.05 0.00 38 1008.7
20260508165218 65 248 1.7 2.6 0.00 0.05 0.00 38 1008.7
20260508164258 65 90 3.5 5.2 0.00 0.05 0.00 37 1008.9
20260508163237 66 135 4.3 6.1 0.00 0.05 0.00 38 1009.1
20260508162238 64 90 1.7 2.6 0.00 0.05 0.00 43 1009.3
20260508161238 63 113 5.2 7.8 0.00 0.05 0.00 40 1009.4
20260508160217 63 90 4.3 5.2 0.00 0.05 0.00 43 1009.3
20260508155217 63 113 1.7 3.5 0.00 0.05 0.00 46 1009.4
20260508154217 62 203 1.7 3.5 0.00 0.05 0.00 43 1009.5
20260508153217 62 45 0.9 2.6 0.00 0.05 0.00 46 1009.6
20260508152217 61 90 2.6 6.1 0.00 0.05 0.00 51 1009.7
20260508151257 59 90 4.3 7.0 0.00 0.05 0.00 55 1009.7
20260508150218 59 113 0.9 1.7 0.00 0.05 0.00 58 1009.8
20260508145217 58 113 2.6 5.2 0.00 0.05 0.00 62 1009.9
20260508144218 57 45 2.6 3.5 0.00 0.05 0.00 65 1010.0
20260508143217 56 90 3.5 5.2 0.00 0.05 0.00 69 1010.0
20260508142217 55 113 1.7 2.6 0.00 0.05 0.00 72 1010.2
20260508141217 54 135 0.9 1.7 0.00 0.05 0.00 73 1010.2
20260508140238 53 135 1.7 3.5 0.00 0.05 0.00 74 1010.2
20260508135217 53 135 1.7 2.6 0.00 0.05 0.00 77 1010.1
20260508134217 52 135 3.5 5.2 0.00 0.05 0.00 81 1010.1
20260508133238 50 90 2.6 3.5 0.00 0.05 0.00 84 1010.0
20260508132237 49 68 2.6 5.2 0.00 0.05 0.00 87 1010.0
20260508131217 48 113 1.7 2.6 0.00 0.05 0.00 89 1010.0
20260508130217 47 90 4.3 7.0 0.00 0.05 0.00 91 1010.1
20260508125217 45 68 1.7 2.6 0.00 0.05 0.00 91 1010.0
20260508124217 45 90 3.5 6.1 0.00 0.05 0.00 92 1010.0
20260508123217 44 90 2.6 3.5 0.00 0.05 0.00 92 1010.2
20260508122217 43 113 2.6 3.5 0.00 0.05 0.00 92 1010.2
20260508121217 42 90 2.6 2.6 0.00 0.05 0.00 92 1010.0
20260508120237 42 90 1.7 2.6 0.00 0.05 0.00 92 1010.1
20260508115217 41 68 1.7 1.7 0.00 0.05 0.00 91 1010.0
20260508114217 40 90 1.7 1.7 0.00 0.05 0.00 91 1010.0
20260508113237 39 0 0.9 1.7 0.00 0.05 0.00 91 1009.9
20260508112217 39 0 0.9 0.9 0.00 0.05 0.00 91 1009.9
20260508111217 38 0.0 0.0 0.00 0.05 0.00 91 1009.7
20260508110217 38 0.0 0.0 0.00 0.05 0.00 90 1009.6
20260508105216 38 0.0 0.9 0.00 0.05 0.00 90 1009.6
20260508104217 37 0.0 0.0 0.00 0.05 0.00 90 1009.5
20260508103237 37 0.0 0.0 0.00 0.05 0.00 90 1009.4
20260508102217 37 0.0 0.0 0.00 0.05 0.00 89 1009.4
20260508101237 38 0.0 0.9 0.00 0.05 0.00 89 1009.4
20260508100237 38 0 0.9 1.7 0.00 0.05 0.00 89 1009.4
20260508095216 38 338 0.9 0.9 0.00 0.05 0.00 89 1009.5
20260508094217 38 0.0 0.0 0.00 0.05 0.00 89 1009.6
20260508093217 38 0.0 0.9 0.00 0.05 0.00 89 1009.6
20260508092237 38 0.0 0.0 0.00 0.05 0.00 89 1009.5
20260508091217 38 0.0 0.0 0.00 0.05 0.00 88 1009.8
20260508090216 38 0.0 0.0 0.00 0.05 0.00 88 1009.8
20260508085237 38 0.0 0.0 0.00 0.05 0.00 88 1009.9
20260508084216 39 0.0 0.0 0.00 0.05 0.00 88 1010.0
20260508083216 39 0.0 0.0 0.00 0.05 0.00 88 1010.1
20260508082216 39 0.0 0.0 0.00 0.05 0.00 88 1010.1
20260508081216 39 0.0 0.0 0.00 0.05 0.00 88 1010.2
20260508080216 40 0.0 0.0 0.00 0.05 0.00 88 1010.2
20260508075216 40 0.0 0.0 0.00 0.05 0.00 88 1010.3
20260508074216 40 0.0 0.0 0.00 0.05 0.00 88 1010.4
20260508073216 40 0.0 0.0 0.00 0.05 0.00 87 1010.5
20260508072217 40 338 0.9 2.6 0.00 0.05 0.00 87 1010.5
20260508071216 41 0.0 0.9 0.00 0.05 0.00 87 1010.6
20260508070216 41 0.0 0.9 0.00 0.05 0.00 86 1010.7
20260508065216 40 0.0 0.0 0.00 0.05 0.00 86 1010.7
20260508064216 40 315 1.7 1.7 0.00 0.05 0.00 85 1010.5
20260508063236 41 0.0 0.0 0.00 0.05 0.00 85 1010.5
20260508062216 41 0.0 0.0 0.00 0.05 0.00 85 1010.6
20260508061236 41 0.0 0.0 0.00 0.05 0.00 84 1010.6